This is the latest recevied weather packets stored in our database for station/object VE3TEJ. If no packets are shown the sender has not sent any weather packets the latest 10 day(s).
| Time | Temp. | Humidity | Pressure | Rain* | Wind** | Luminosity | Snow |
|---|---|---|---|---|---|---|---|
| 1777653137 | 8.33° C | 58% | 1011.3 hPa | 0 mm | - | - | - |
| 1777652837 | 7.78° C | 59% | 1011.5 hPa | 0 mm | - | - | - |
| 1777652537 | 7.78° C | 60% | 1011.6 hPa | 0 mm | - | - | - |
| 1777652237 | 8.33° C | 60% | 1011.6 hPa | 0 mm | - | - | - |
| 1777651938 | 8.33° C | 60% | 1011.9 hPa | 0 mm | - | - | - |
| 1777651637 | 8.33° C | 61% | 1011.7 hPa | 0 mm | - | - | - |
| 1777651336 | 10° C | 58% | 1011.8 hPa | 0 mm | - | - | - |
| 1777651036 | 8.89° C | 56% | 1011.6 hPa | 0 mm | - | - | - |
| 1777650736 | 7.78° C | 59% | 1011.8 hPa | 0 mm | - | - | - |
| 1777650437 | 7.22° C | 62% | 1011.8 hPa | 0 mm | - | - | - |
| 1777650137 | 7.22° C | 63% | 1011.9 hPa | 0 mm | - | - | - |
| 1777649837 | 7.22° C | 63% | 1011.8 hPa | 0 mm | - | - | - |
| 1777649536 | 7.22° C | 63% | 1011.9 hPa | 0 mm | - | - | - |
| 1777649236 | 7.78° C | 63% | 1011.9 hPa | 0 mm | - | - | - |
| 1777648937 | 7.22° C | 64% | 1011.8 hPa | 0 mm | - | - | - |
| 1777648637 | 6.67° C | 64% | 1012 hPa | 0 mm | - | - | - |
| 1777648336 | 7.22° C | 63% | 1011.9 hPa | 0 mm | - | - | - |
| 1777648036 | 7.22° C | 65% | 1011.8 hPa | 0 mm | - | - | - |
| 1777647736 | 6.67° C | 66% | 1011.7 hPa | 0 mm | - | - | - |
| 1777647436 | 6.67° C | 64% | 1011.8 hPa | 0 mm | - | - | - |
| 1777647136 | 6.67° C | 66% | 1011.9 hPa | 0 mm | - | - | - |
| 1777646836 | 6.11° C | 65% | 1012 hPa | 0 mm | - | - | - |
| 1777646536 | 6.11° C | 66% | 1012 hPa | 0 mm | - | - | - |
| 1777646238 | 6.11° C | 65% | 1012 hPa | 0 mm | - | - | - |
| 1777645936 | 6.67° C | 64% | 1011.7 hPa | 0 mm | - | - | - |
* Rain latest hour (hover to see other rain measurements)
** Current wind speed in m/s (hover to see current wind gust speed)